WMT409 LRIA-EPKK

Flight info

Callsign WMT409
Flight time 1h 7m
Altitude 38000
Route ARPIG DCT TOMUC DCT KARIL DCT KENIN DCT LENOV
Aircraft A20N/M-SDE2E3FGHIRWXY/LB1

Departure

Time 2026-04-22 16:51
Airport Iaşi International Airport (LRIA)

Arrival

Time 2026-04-22 17:58
Airport Kraków John Paul II International Airport (EPKK)
Time Latitude Longitude Altitude Speed Heading
2026-04-22 16:31 47.17686 27.61876 388 ft 0 kts 247°
2026-04-22 16:40 47.17690 27.61892 388 ft 1 kts 247°
2026-04-22 16:41 47.17691 27.61886 388 ft 1 kts 271°
2026-04-22 16:41 47.17693 27.61878 388 ft 1 kts 300°
2026-04-22 16:41 47.17698 27.61874 388 ft 1 kts 329°
2026-04-22 16:41 47.17703 27.61874 388 ft 1 kts 359°
2026-04-22 16:42 47.17705 27.61874 388 ft 0 kts
2026-04-22 16:45 47.17717 27.61889 388 ft 9 kts 44°
2026-04-22 16:45 47.17734 27.61920 389 ft 2 kts 55°
2026-04-22 16:46 47.17752 27.61931 390 ft 7 kts 34°
2026-04-22 16:46 47.17783 27.62007 390 ft 11 kts 63°
2026-04-22 16:46 47.17829 27.62143 378 ft 22 kts 65°
2026-04-22 16:46 47.17774 27.62311 367 ft 17 kts 167°
2026-04-22 16:47 47.17717 27.62363 366 ft 7 kts 146°
2026-04-22 16:47 47.17661 27.62420 364 ft 13 kts 144°
2026-04-22 16:47 47.17619 27.62494 364 ft 16 kts 134°
2026-04-22 16:47 47.17569 27.62505 360 ft 1 kts 227°
2026-04-22 16:48 47.17572 27.62499 360 ft 0 kts 279°
2026-04-22 16:48 47.17588 27.62474 365 ft 4 kts 323°
2026-04-22 16:50 47.17795 27.62300 373 ft 70 kts 327°
2026-04-22 16:50 47.18387 27.61767 396 ft 127 kts 329°
2026-04-22 16:50 47.19242 27.61026 720 ft 146 kts 329°
2026-04-22 16:51 47.20158 27.60383 1381 ft 147 kts 338°
2026-04-22 16:51 47.21131 27.59896 2083 ft 147 kts 342°
2026-04-22 16:51 47.22103 27.59260 2578 ft 161 kts 333°
2026-04-22 16:51 47.23140 27.58413 2958 ft 179 kts 332°
2026-04-22 16:52 47.24260 27.57383 3236 ft 203 kts 317°
2026-04-22 16:52 47.25055 27.55553 3590 ft 225 kts 294°
2026-04-22 16:52 47.25618 27.53323 4126 ft 237 kts 291°
2026-04-22 16:52 47.26207 27.51046 5027 ft 238 kts 294°
2026-04-22 16:53 47.26878 27.48811 5995 ft 240 kts 297°
2026-04-22 16:53 47.27612 27.46621 7021 ft 242 kts 298°
2026-04-22 16:53 47.28392 27.44430 8173 ft 241 kts 299°
2026-04-22 16:53 47.29187 27.42254 9335 ft 241 kts 299°
2026-04-22 16:54 47.29991 27.40066 10381 ft 245 kts 299°
2026-04-22 16:54 47.30806 27.37844 11358 ft 248 kts 299°
2026-04-22 16:54 47.31632 27.35586 12326 ft 252 kts 299°
2026-04-22 16:54 47.32468 27.33294 13285 ft 256 kts 298°
2026-04-22 16:55 47.33314 27.30969 14216 ft 259 kts 298°
2026-04-22 16:55 47.34180 27.28591 14896 ft 271 kts 298°
2026-04-22 16:55 47.35111 27.26029 15205 ft 295 kts 298°
2026-04-22 16:55 47.36121 27.23251 15454 ft 320 kts 298°
2026-04-22 16:56 47.37195 27.20294 15777 ft 339 kts 298°
2026-04-22 16:56 47.38311 27.17215 16558 ft 343 kts 298°
2026-04-22 16:56 47.39443 27.14090 17374 ft 348 kts 298°
2026-04-22 16:56 47.40607 27.10870 18182 ft 352 kts 298°
2026-04-22 16:57 47.41755 27.07691 18883 ft 357 kts 298°
2026-04-22 16:57 47.42929 27.04435 19552 ft 361 kts 298°
2026-04-22 16:57 47.44117 27.01134 20213 ft 366 kts 298°
2026-04-22 16:57 47.45318 26.97795 20861 ft 371 kts 298°
2026-04-22 16:58 47.46141 26.95502 21303 ft 374 kts 298°
2026-04-22 16:58 47.47768 26.90965 22187 ft 380 kts 298°
2026-04-22 16:58 47.49015 26.87482 22832 ft 385 kts 298°
2026-04-22 16:58 47.50112 26.83842 23455 ft 390 kts 291°
2026-04-22 16:59 47.50884 26.79972 24010 ft 395 kts 283°
2026-04-22 16:59 47.51319 26.75934 24599 ft 398 kts 278°
2026-04-22 16:59 47.51645 26.71852 25147 ft 402 kts 278°
2026-04-22 16:59 47.51987 26.67735 25681 ft 405 kts 278°
2026-04-22 17:00 47.52336 26.63593 26203 ft 408 kts 278°
2026-04-22 17:00 47.53038 26.55203 27221 ft 414 kts 278°
2026-04-22 17:00 47.53389 26.50959 27694 ft 417 kts 278°
2026-04-22 17:01 47.53741 26.46678 28164 ft 420 kts 278°
2026-04-22 17:01 47.54093 26.42354 28608 ft 423 kts 278°
2026-04-22 17:01 47.54440 26.38072 29045 ft 426 kts 278°
2026-04-22 17:01 47.54797 26.33640 29480 ft 429 kts 278°
2026-04-22 17:02 47.55146 26.29298 29888 ft 432 kts 278°
2026-04-22 17:02 47.55500 26.24866 30257 ft 435 kts 278°
2026-04-22 17:02 47.55854 26.20406 30650 ft 437 kts 278°
2026-04-22 17:02 47.56208 26.15928 31044 ft 438 kts 278°
2026-04-22 17:03 47.56561 26.11445 31486 ft 439 kts 278°
2026-04-22 17:03 47.56911 26.06964 31982 ft 437 kts 278°
2026-04-22 17:03 47.57146 26.03948 32329 ft 436 kts 278°
2026-04-22 17:03 47.57601 25.98065 33007 ft 434 kts 277°
2026-04-22 17:04 47.57833 25.95064 33355 ft 432 kts 277°
2026-04-22 17:04 47.58171 25.90655 33840 ft 431 kts 277°
2026-04-22 17:04 47.58508 25.86245 34263 ft 430 kts 277°
2026-04-22 17:04 47.58842 25.81853 34586 ft 430 kts 277°
2026-04-22 17:05 47.59176 25.77440 34888 ft 430 kts 277°
2026-04-22 17:05 47.59508 25.73030 35181 ft 431 kts 277°
2026-04-22 17:05 47.59834 25.68673 35465 ft 432 kts 277°
2026-04-22 17:05 47.60163 25.64256 35768 ft 432 kts 277°
2026-04-22 17:06 47.60492 25.59821 36070 ft 432 kts 277°
2026-04-22 17:06 47.60818 25.55400 36333 ft 433 kts 277°
2026-04-22 17:06 47.61143 25.50963 36594 ft 433 kts 277°
2026-04-22 17:06 47.61467 25.46516 36876 ft 433 kts 277°
2026-04-22 17:07 47.61790 25.42064 37146 ft 434 kts 277°
2026-04-22 17:07 47.62111 25.37616 37394 ft 434 kts 277°
2026-04-22 17:07 47.62430 25.33159 37644 ft 434 kts 277°
2026-04-22 17:07 47.62748 25.28706 37906 ft 435 kts 277°
2026-04-22 17:08 47.63060 25.24305 38092 ft 435 kts 277°
2026-04-22 17:08 47.63374 25.19843 38094 ft 434 kts 277°
2026-04-22 17:08 47.63995 25.10960 38094 ft 433 kts 277°
2026-04-22 17:09 47.64611 25.02052 38102 ft 434 kts 277°
2026-04-22 17:09 47.65219 24.93149 38097 ft 434 kts 277°
2026-04-22 17:10 47.65820 24.84246 38091 ft 433 kts 277°
2026-04-22 17:10 47.66414 24.75345 38090 ft 433 kts 277°
2026-04-22 17:11 47.67002 24.66445 38084 ft 434 kts 277°
2026-04-22 17:11 47.67582 24.57537 38086 ft 433 kts 277°
2026-04-22 17:12 47.68150 24.48703 38078 ft 434 kts 276°
2026-04-22 17:12 47.68719 24.39753 38075 ft 434 kts 276°
2026-04-22 17:13 47.69281 24.30816 38074 ft 435 kts 276°
2026-04-22 17:13 47.69835 24.21879 38079 ft 436 kts 276°
2026-04-22 17:14 47.70385 24.12904 38075 ft 436 kts 276°
2026-04-22 17:14 47.70929 24.03912 38077 ft 436 kts 276°
2026-04-22 17:15 47.71464 23.94933 38073 ft 437 kts 276°
2026-04-22 17:15 47.71993 23.85939 38076 ft 437 kts 276°
2026-04-22 17:16 47.72513 23.76982 38079 ft 438 kts 276°
2026-04-22 17:16 47.73029 23.67974 38081 ft 438 kts 276°
2026-04-22 17:17 47.73537 23.58948 38080 ft 438 kts 276°
2026-04-22 17:17 47.74041 23.49916 38074 ft 439 kts 276°
2026-04-22 17:18 47.74536 23.40894 38078 ft 439 kts 276°
2026-04-22 17:18 47.75026 23.31836 38078 ft 439 kts 276°
2026-04-22 17:19 47.75984 23.13726 38080 ft 439 kts 276°
2026-04-22 17:20 47.76910 22.95641 38072 ft 440 kts 276°
2026-04-22 17:21 47.79756 22.82980 38064 ft 434 kts 308°
2026-04-22 17:22 47.85900 22.73079 38064 ft 435 kts 314°
2026-04-22 17:23 47.92149 22.63259 38075 ft 436 kts 314°
2026-04-22 17:23 47.98397 22.53368 38082 ft 437 kts 314°
2026-04-22 17:24 48.02568 22.46740 38081 ft 438 kts 314°
2026-04-22 17:24 48.06747 22.40085 38088 ft 439 kts 314°
2026-04-22 17:25 48.10928 22.33408 38093 ft 440 kts 314°
2026-04-22 17:25 48.15087 22.26750 38095 ft 440 kts 314°
2026-04-22 17:26 48.19275 22.20029 38093 ft 441 kts 314°
2026-04-22 17:26 48.23360 22.13454 38098 ft 441 kts 313°
2026-04-22 17:27 48.27529 22.06676 38097 ft 442 kts 313°
2026-04-22 17:27 48.31700 21.99910 38098 ft 442 kts 313°
2026-04-22 17:28 48.36107 21.93403 38085 ft 447 kts 323°
2026-04-22 17:28 48.41172 21.88099 38093 ft 445 kts 331°
2026-04-22 17:29 48.46448 21.83235 38091 ft 445 kts 331°
2026-04-22 17:29 48.51721 21.78341 38091 ft 445 kts 331°
2026-04-22 17:30 48.56992 21.73454 38098 ft 445 kts 331°
2026-04-22 17:30 48.62266 21.68556 38097 ft 444 kts 331°
2026-04-22 17:31 48.64886 21.66119 37976 ft 442 kts 331°
2026-04-22 17:31 48.67504 21.63678 37706 ft 441 kts 332°
2026-04-22 17:31 48.70092 21.61265 37445 ft 443 kts 332°
2026-04-22 17:31 48.72722 21.58808 37169 ft 444 kts 332°
2026-04-22 17:32 48.75350 21.56349 36920 ft 444 kts 332°
2026-04-22 17:32 48.77985 21.53879 36653 ft 444 kts 332°
2026-04-22 17:32 48.80611 21.51416 36404 ft 444 kts 332°
2026-04-22 17:32 48.83240 21.48947 36150 ft 444 kts 332°
2026-04-22 17:33 48.84975 21.47317 35983 ft 444 kts 333°
2026-04-22 17:33 48.88505 21.43995 35654 ft 445 kts 333°
2026-04-22 17:33 48.91139 21.41511 35409 ft 445 kts 333°
2026-04-22 17:33 48.93774 21.39024 35164 ft 446 kts 333°
2026-04-22 17:34 48.96408 21.36535 34891 ft 446 kts 333°
2026-04-22 17:34 48.99044 21.34039 34275 ft 448 kts 334°
2026-04-22 17:34 49.01712 21.31512 33257 ft 454 kts 334°
2026-04-22 17:34 49.04402 21.28958 32376 ft 456 kts 335°
2026-04-22 17:35 49.07078 21.26410 31802 ft 450 kts 335°
2026-04-22 17:35 49.09726 21.23885 30963 ft 450 kts 336°
2026-04-22 17:35 49.12408 21.21333 29906 ft 456 kts 336°
2026-04-22 17:35 49.15097 21.18773 29107 ft 453 kts 336°
2026-04-22 17:36 49.17743 21.16243 28638 ft 443 kts 336°
2026-04-22 17:36 49.20284 21.13803 28323 ft 432 kts 336°
2026-04-22 17:36 49.22818 21.11377 27595 ft 429 kts 335°
2026-04-22 17:36 49.25349 21.08960 26968 ft 424 kts 335°
2026-04-22 17:37 49.27827 21.06590 26512 ft 419 kts 335°
2026-04-22 17:37 49.30310 21.04215 25844 ft 418 kts 335°
2026-04-22 17:37 49.32680 21.01680 25331 ft 417 kts 328°
2026-04-22 17:37 49.34851 20.98678 24724 ft 420 kts 320°
2026-04-22 17:38 49.36773 20.95319 24088 ft 421 kts 315°
2026-04-22 17:38 49.38653 20.91868 23493 ft 417 kts 315°
2026-04-22 17:38 49.40506 20.88490 22866 ft 411 kts 315°
2026-04-22 17:38 49.42334 20.85158 22277 ft 405 kts 315°
2026-04-22 17:39 49.44134 20.81871 21687 ft 399 kts 315°
2026-04-22 17:39 49.45905 20.78630 21111 ft 394 kts 315°
2026-04-22 17:39 49.49391 20.72235 19949 ft 385 kts 315°
2026-04-22 17:40 49.51107 20.69081 19372 ft 382 kts 314°
2026-04-22 17:40 49.52781 20.65999 18823 ft 378 kts 314°
2026-04-22 17:40 49.54453 20.62918 18225 ft 374 kts 314°
2026-04-22 17:40 49.56114 20.59853 17648 ft 369 kts 314°
2026-04-22 17:41 49.57746 20.56836 17086 ft 364 kts 314°
2026-04-22 17:41 49.59352 20.53864 16640 ft 358 kts 314°
2026-04-22 17:41 49.60954 20.50898 16248 ft 358 kts 313°
2026-04-22 17:41 49.62539 20.47956 16126 ft 355 kts 313°
2026-04-22 17:42 49.64129 20.45005 16114 ft 357 kts 313°
2026-04-22 17:42 49.65714 20.42059 16117 ft 358 kts 313°
2026-04-22 17:42 49.66770 20.40095 16113 ft 358 kts 313°
2026-04-22 17:42 49.68886 20.36151 16084 ft 354 kts 313°
2026-04-22 17:43 49.70435 20.33254 15999 ft 344 kts 313°
2026-04-22 17:43 49.71933 20.30449 15891 ft 332 kts 313°
2026-04-22 17:43 49.73371 20.27752 15667 ft 318 kts 314°
2026-04-22 17:43 49.74767 20.25143 14759 ft 322 kts 313°
2026-04-22 17:44 49.76224 20.22430 13546 ft 334 kts 313°
2026-04-22 17:44 49.77742 20.19635 12177 ft 344 kts 315°
2026-04-22 17:44 49.79501 20.17074 10715 ft 352 kts 323°
2026-04-22 17:44 49.81470 20.14793 9541 ft 352 kts 324°
2026-04-22 17:45 49.83393 20.12552 8941 ft 335 kts 324°
2026-04-22 17:45 49.85181 20.10448 8681 ft 311 kts 323°
2026-04-22 17:45 49.86839 20.08490 8466 ft 289 kts 323°
2026-04-22 17:45 49.88385 20.06663 8221 ft 271 kts 323°
2026-04-22 17:46 49.89862 20.04920 7716 ft 264 kts 323°
2026-04-22 17:46 49.91306 20.03248 7440 ft 257 kts 327°
2026-04-22 17:46 49.92917 20.01993 7289 ft 260 kts 340°
2026-04-22 17:46 49.94672 20.01346 7204 ft 259 kts 349°
2026-04-22 17:47 49.96432 20.00857 7154 ft 252 kts 348°
2026-04-22 17:47 49.98089 20.00376 7044 ft 238 kts 348°
2026-04-22 17:47 49.99687 20.00115 6783 ft 229 kts
2026-04-22 17:47 50.01173 20.00998 6226 ft 236 kts 34°
2026-04-22 17:48 50.01951 20.02269 5709 ft 247 kts 54°
2026-04-22 17:48 50.02645 20.05656 5139 ft 246 kts 76°
2026-04-22 17:48 50.02941 20.08209 5004 ft 239 kts 76°
2026-04-22 17:48 50.03238 20.10777 4985 ft 241 kts 76°
2026-04-22 17:49 50.03551 20.13324 4981 ft 240 kts 75°
2026-04-22 17:49 50.03770 20.15017 4977 ft 240 kts 75°
2026-04-22 17:49 50.04111 20.17569 4987 ft 241 kts 74°
2026-04-22 17:49 50.04456 20.20114 4980 ft 240 kts 73°
2026-04-22 17:50 50.05139 20.22418 4972 ft 232 kts 44°
2026-04-22 17:50 50.06429 20.23770 4975 ft 222 kts 13°
2026-04-22 17:50 50.07940 20.23816 4973 ft 218 kts 345°
2026-04-22 17:50 50.09414 20.23269 4972 ft 218 kts 345°
2026-04-22 17:51 50.10888 20.22738 4969 ft 216 kts 345°
2026-04-22 17:51 50.12229 20.21897 4964 ft 201 kts 321°
2026-04-22 17:51 50.13007 20.20211 4972 ft 189 kts 291°
2026-04-22 17:51 50.13170 20.18282 4976 ft 173 kts 272°
2026-04-22 17:52 50.13031 20.16441 4977 ft 174 kts 265°
2026-04-22 17:52 50.12785 20.14587 4975 ft 175 kts 263°
2026-04-22 17:52 50.12528 20.12755 4983 ft 172 kts 263°
2026-04-22 17:52 50.12275 20.10923 4890 ft 173 kts 263°
2026-04-22 17:53 50.12020 20.09080 4641 ft 174 kts 263°
2026-04-22 17:53 50.11766 20.07262 4394 ft 171 kts 263°
2026-04-22 17:53 50.11517 20.05457 4164 ft 170 kts 263°
2026-04-22 17:53 50.11268 20.03661 3926 ft 170 kts 263°
2026-04-22 17:54 50.11016 20.01840 3692 ft 172 kts 263°
2026-04-22 17:54 50.10769 20.00080 3465 ft 157 kts 263°
2026-04-22 17:54 50.10553 19.98528 3264 ft 146 kts 265°
2026-04-22 17:54 50.10343 19.96994 3052 ft 143 kts 264°
2026-04-22 17:55 50.10132 19.95467 2874 ft 145 kts 264°
2026-04-22 17:55 50.09919 19.93935 2678 ft 144 kts 264°
2026-04-22 17:55 50.09707 19.92409 2481 ft 144 kts 263°
2026-04-22 17:55 50.09496 19.90886 2287 ft 144 kts 264°
2026-04-22 17:56 50.09283 19.89356 2086 ft 144 kts 263°
2026-04-22 17:56 50.09072 19.87828 1876 ft 147 kts 263°
2026-04-22 17:56 50.08856 19.86285 1660 ft 141 kts 262°
2026-04-22 17:56 50.08652 19.84811 1462 ft 140 kts 261°
2026-04-22 17:57 50.08454 19.83394 1270 ft 128 kts 262°
2026-04-22 17:57 50.08270 19.82063 1095 ft 125 kts 261°
2026-04-22 17:57 50.08092 19.80775 929 ft 122 kts 262°
2026-04-22 17:57 50.07907 19.79483 793 ft 120 kts 262°
2026-04-22 17:58 50.07764 19.78434 795 ft 52 kts 258°
2026-04-22 17:58 50.07701 19.78010 793 ft 39 kts 256°
2026-04-22 17:58 50.07648 19.77607 796 ft 36 kts 258°
2026-04-22 17:58 50.07597 19.77237 799 ft 33 kts 259°
2026-04-22 17:59 50.07549 19.76906 801 ft 25 kts 249°
2026-04-22 17:59 50.07406 19.76871 799 ft 25 kts 169°
2026-04-22 17:59 50.07378 19.76882 799 ft 0 kts 166°
2026-04-22 18:00 50.07360 19.76889 799 ft 13 kts 165°
2026-04-22 18:00 50.07322 19.77088 799 ft 21 kts 72°
2026-04-22 18:00 50.07341 19.77236 798 ft 16 kts 78°
2026-04-22 18:00 50.07371 19.77432 797 ft 21 kts 77°
2026-04-22 18:01 50.07406 19.77670 796 ft 24 kts 78°
2026-04-22 18:01 50.07440 19.77938 795 ft 23 kts 77°
2026-04-22 18:01 50.07466 19.78110 795 ft 6 kts 77°
2026-04-22 18:01 50.07479 19.78202 794 ft 11 kts 77°
2026-04-22 18:02 50.07500 19.78344 794 ft 16 kts 77°
2026-04-22 18:02 50.07526 19.78531 793 ft 20 kts 82°
2026-04-22 18:02 50.07553 19.78758 793 ft 23 kts 77°
2026-04-22 18:02 50.07592 19.79021 792 ft 27 kts 76°
2026-04-22 18:03 50.07634 19.79317 790 ft 29 kts 77°
2026-04-22 18:03 50.07657 19.79471 790 ft 12 kts 78°
2026-04-22 18:03 50.07672 19.79591 789 ft 0 kts 79°
2026-04-22 18:03 50.07672 19.79600 789 ft 0 kts 82°
2026-04-22 18:04 50.07673 19.79601 789 ft 0 kts 82°
2026-04-22 18:04 50.07672 19.79618 789 ft 11 kts 93°
2026-04-22 18:05 50.07639 19.79707 789 ft 12 kts 123°
2026-04-22 18:05 50.07588 19.79835 789 ft 3 kts 121°
2026-04-22 18:05 50.07588 19.79836 789 ft 0 kts 121°
2026-04-22 18:06 50.07588 19.79837 789 ft 1 kts 121°
2026-04-22 18:06 50.07575 19.79869 789 ft 0 kts 121°
2026-04-22 18:07 50.07575 19.79870 789 ft 2 kts 122°
2026-04-22 18:07 50.07520 19.79928 788 ft 6 kts 160°
2026-04-22 18:07 50.07458 19.79957 788 ft 12 kts 163°
2026-04-22 18:08 50.07424 19.79972 788 ft 0 kts 164°
2026-04-22 18:08 50.07423 19.79973 788 ft 2 kts 163°
2026-04-22 18:08 50.07412 19.80060 788 ft 12 kts 76°
2026-04-22 18:08 50.07435 19.80214 787 ft 5 kts 77°
2026-04-22 18:09 50.07443 19.80291 787 ft 15 kts 76°
2026-04-22 18:09 50.07500 19.80371 787 ft 2 kts 10°
2026-04-22 18:09 50.07527 19.80379 787 ft 0 kts 10°
2026-04-22 18:09 50.07571 19.80367 787 ft 2 kts 314°
2026-04-22 18:10 50.07575 19.80323 787 ft 2 kts 245°
2026-04-22 18:10 50.07560 19.80270 787 ft 8 kts 253°
2026-04-22 18:10 50.07548 19.80246 787 ft 2 kts 188°
2026-04-22 18:10 50.07531 19.80254 787 ft 4 kts 137°
2026-04-22 18:11 50.07501 19.80273 787 ft 1 kts 169°
2026-04-22 18:11 50.07492 19.80273 787 ft 0 kts 174°
2026-04-22 18:11 50.07497 19.80272 787 ft 4 kts 167°
2026-04-22 18:12 50.07498 19.80272 787 ft 1 kts 166°
2026-04-22 18:12 50.07502 19.80270 787 ft 0 kts 165°